User: anonymous   Login
Location: Mascot Post Office (historical)
(40.2645°N, 99.5462°W)
Time: 02:18:41
(UTC+00:00)
Language:

NOSS 3-4 (C) - Orbit

View from above orbital plane
View from above orbital plane
View from above satellite
View from above satellite

Ground track
Ground track

The orbit data is extracted from the following two-line orbital elements,

1 31708U 07027C   20271.80669743 0.00000000  00000-0  00000-0 0    03
2 31708  63.3984 265.9897 0293455  19.4766 340.5234 13.40805924    08
Epoch (UTC): 27 September 2020 19:21:38
Eccentricity: 0.0293455
inclination: 63.3984°
perigee height: 886 km
apogee height: 1326 km
right ascension of ascending node: 265.9897°
argument of perigee: 19.4766°
revolutions per day: 13.40805924
mean anomaly at epoch: 340.5234°
orbit number at epoch: 0

The dashed part of the orbit path shows where the satellite is in the earth's shadow,  

DLR